When you browse on this site, cookies collect data to enhance your experience and personalize the content and advertising you see.
Visit our Privacy Policy to learn more. By continuing to use the site, you agree to this use of cookies and data.
  • In Germany
  • List of Countries
  • For 7 days
  • Water Temperature
  • Weather Map
  • Weather Widgets
  • user-avatar
    Login

    Hourly Weather Jalalabad

    Today, 21 November, Thursday

    Time Temperature Precipitation Wind Pressure Humidity
    00:00 +17°C° 0 mm 2 mps 713 mmHg 45%
    01:00 +17°C° 0 mm 2 mps 713 mmHg 48%
    02:00 +16°C° 0 mm 1 mps 713 mmHg 50%
    03:00 +16°C° 0 mm 1 mps 712 mmHg 50%
    04:00 +16°C° 0 mm 2 mps 712 mmHg 49%
    05:00 +16°C° 0 mm 1 mps 712 mmHg 48%
    06:00 +18°C° 0 mm 1 mps 712 mmHg 48%
    07:00 +18°C° 0 mm 1 mps 713 mmHg 48%
    08:00 +18°C° 0 mm 1 mps 713 mmHg 48%
    09:00 +19°C° 0 mm 1 mps 713 mmHg 45%
    10:00 +19°C° 0 mm 1 mps 713 mmHg 42%
    11:00 +20°C° 0 mm 1 mps 714 mmHg 39%
    12:00 +20°C° 0 mm 1 mps 713 mmHg 40%
    13:00 +20°C° 0 mm 1 mps 713 mmHg 40%
    14:00 +20°C° 0 mm 1 mps 713 mmHg 41%
    15:00 +18°C° 0.2 mm 2 mps 712 mmHg 46%
    16:00 +17°C° 0.2 mm 2 mps 712 mmHg 52%
    17:00 +17°C° 0.2 mm 3 mps 712 mmHg 57%
    18:00 +16°C° 0.1 mm 2 mps 713 mmHg 59%
    19:00 +16°C° 0.1 mm 2 mps 713 mmHg 60%
    20:00 +16°C° 0.1 mm 1 mps 714 mmHg 62%
    21:00 +16°C° 0.1 mm 1 mps 714 mmHg 63%
    22:00 +16°C° 0.1 mm 1 mps 714 mmHg 65%
    23:00 +14°C° 0.1 mm 0 mps 714 mmHg 67%

    Tomorrow, 22 November, Friday

    Time Temperature Precipitation Wind Pressure Humidity
    00:00 +15°C° 0 mm 1 mps 713 mmHg 68%
    01:00 +15°C° 0 mm 1 mps 713 mmHg 70%
    02:00 +15°C° 0 mm 1 mps 713 mmHg 71%
    03:00 +15°C° 0.1 mm 1 mps 712 mmHg 72%
    04:00 +15°C° 0.1 mm 1 mps 712 mmHg 72%
    05:00 +15°C° 0.1 mm 1 mps 712 mmHg 73%
    06:00 +15°C° 0.1 mm 1 mps 712 mmHg 73%
    07:00 +15°C° 0.1 mm 1 mps 713 mmHg 72%
    08:00 +14°C° 0.1 mm 0 mps 713 mmHg 72%
    09:00 +14°C° 0.1 mm 0 mps 713 mmHg 72%
    10:00 +15°C° 0.1 mm 1 mps 713 mmHg 71%
    11:00 +15°C° 0.1 mm 1 mps 713 mmHg 70%
    12:00 +15°C° 0 mm 1 mps 713 mmHg 69%
    13:00 +15°C° 0 mm 1 mps 712 mmHg 67%
    14:00 +16°C° 0 mm 1 mps 712 mmHg 66%
    15:00 +15°C° 0 mm 1 mps 712 mmHg 66%
    16:00 +15°C° 0 mm 1 mps 712 mmHg 67%
    17:00 +15°C° 0 mm 1 mps 712 mmHg 67%
    18:00 +15°C° 0 mm 1 mps 712 mmHg 68%
    19:00 +15°C° 0 mm 1 mps 712 mmHg 69%
    20:00 +15°C° 0 mm 1 mps 713 mmHg 70%
    21:00 +15°C° 0 mm 1 mps 713 mmHg 71%
    22:00 +15°C° 0 mm 1 mps 713 mmHg 72%
    23:00 +14°C° 0 mm 1 mps 713 mmHg 73%

    Day after tomorrow, 23 November, Saturday

    Time Temperature Precipitation Wind Pressure Humidity
    00:00 +14°C° 0 mm 1 mps 713 mmHg 73%
    01:00 +13°C° 0 mm 0 mps 713 mmHg 73%
    02:00 +13°C° 0 mm 0 mps 712 mmHg 73%
    03:00 +13°C° 0 mm 0 mps 712 mmHg 73%
    04:00 +13°C° 0 mm 0 mps 712 mmHg 74%
    05:00 +12°C° 0 mm 0 mps 712 mmHg 75%
    06:00 +13°C° 0 mm 0 mps 712 mmHg 73%
    07:00 +13°C° 0 mm 0 mps 713 mmHg 71%
    08:00 +13°C° 0 mm 0 mps 713 mmHg 70%
    09:00 +14°C° 0 mm 0 mps 713 mmHg 64%
    10:00 +15°C° 0 mm 0 mps 713 mmHg 59%
    11:00 +18°C° 0 mm 1 mps 713 mmHg 53%
    12:00 +19°C° 0 mm 1 mps 712 mmHg 50%
    13:00 +20°C° 0 mm 1 mps 712 mmHg 47%
    14:00 +21°C° 0 mm 1 mps 712 mmHg 44%
    15:00 +20°C° 0 mm 1 mps 712 mmHg 46%
    16:00 +18°C° 0 mm 0 mps 712 mmHg 49%
    17:00 +18°C° 0 mm 0 mps 712 mmHg 51%
    18:00 +17°C° 0 mm 0 mps 712 mmHg 53%
    19:00 +16°C° 0 mm 0 mps 713 mmHg 56%
    20:00 +16°C° 0 mm 0 mps 713 mmHg 58%
    21:00 +15°C° 0 mm 0 mps 713 mmHg 58%
    22:00 +15°C° 0 mm 0 mps 713 mmHg 58%
    23:00 +14°C° 0 mm 0 mps 713 mmHg 58%

    24 November, Sunday

    Time Temperature Precipitation Wind Pressure Humidity
    00:00 +14°C° 0 mm 0 mps 713 mmHg 57%
    01:00 +14°C° 0 mm 0 mps 713 mmHg 56%
    02:00 +15°C° 0 mm 1 mps 712 mmHg 55%
    03:00 +15°C° 0 mm 1 mps 712 mmHg 54%
    04:00 +15°C° 0 mm 1 mps 712 mmHg 53%
    05:00 +15°C° 0 mm 1 mps 711 mmHg 52%
    06:00 +15°C° 0 mm 1 mps 712 mmHg 51%
    07:00 +15°C° 0 mm 1 mps 712 mmHg 50%
    08:00 +16°C° 0 mm 1 mps 712 mmHg 48%
    09:00 +18°C° 0 mm 1 mps 712 mmHg 43%
    10:00 +19°C° 0 mm 1 mps 712 mmHg 38%
    11:00 +20°C° 0 mm 1 mps 712 mmHg 32%
    12:00 +21°C° 0 mm 1 mps 711 mmHg 31%
    13:00 +21°C° 0 mm 1 mps 711 mmHg 30%
    14:00 +22°C° 0 mm 1 mps 710 mmHg 29%
    15:00 +21°C° 0 mm 1 mps 710 mmHg 33%
    16:00 +21°C° 0 mm 1 mps 710 mmHg 36%
    17:00 +18°C° 0 mm 0 mps 710 mmHg 40%
    18:00 +17°C° 0 mm 0 mps 711 mmHg 42%
    19:00 +16°C° 0 mm 0 mps 711 mmHg 43%
    20:00 +16°C° 0 mm 0 mps 711 mmHg 45%
    21:00 +15°C° 0 mm 0 mps 712 mmHg 45%
    22:00 +15°C° 0 mm 0 mps 712 mmHg 45%
    23:00 +16°C° 0 mm 1 mps 712 mmHg 46%

    25 November, Monday

    Time Temperature Precipitation Wind Pressure Humidity
    00:00 +14°C° 0 mm 0 mps 712 mmHg 46%
    01:00 +14°C° 0 mm 0 mps 712 mmHg 46%
    02:00 +14°C° 0 mm 0 mps 712 mmHg 46%
    03:00 +14°C° 0 mm 0 mps 712 mmHg 46%
    04:00 +14°C° 0 mm 0 mps 712 mmHg 47%
    05:00 +15°C° 0 mm 1 mps 712 mmHg 47%
    06:00 +15°C° 0 mm 1 mps 712 mmHg 46%
    07:00 +15°C° 0 mm 1 mps 712 mmHg 45%
    08:00 +16°C° 0 mm 1 mps 712 mmHg 45%
    09:00 +18°C° 0 mm 1 mps 712 mmHg 40%
    10:00 +19°C° 0 mm 1 mps 712 mmHg 36%
    11:00 +20°C° 0 mm 1 mps 712 mmHg 32%
    12:00 +20°C° 0 mm 1 mps 711 mmHg 31%
    13:00 +21°C° 0 mm 1 mps 711 mmHg 30%
    14:00 +21°C° 0 mm 1 mps 710 mmHg 29%
    15:00 +18°C° 0 mm 0 mps 710 mmHg 33%
    16:00 +18°C° 0 mm 0 mps 710 mmHg 36%
    17:00 +17°C° 0 mm 0 mps 710 mmHg 40%
    18:00 +17°C° 0.1 mm 0 mps 711 mmHg 42%
    19:00 +16°C° 0.1 mm 0 mps 711 mmHg 44%
    20:00 +16°C° 0.1 mm 0 mps 711 mmHg 46%
    21:00 +15°C° 0.2 mm 0 mps 711 mmHg 48%
    22:00 +15°C° 0.2 mm 0 mps 711 mmHg 50%
    23:00 +14°C° 0.2 mm 0 mps 712 mmHg 52%

    26 November, Tuesday

    Time Temperature Precipitation Wind Pressure Humidity
    00:00 +14°C° 0.2 mm 0 mps 711 mmHg 54%
    01:00 +14°C° 0.2 mm 0 mps 711 mmHg 57%
    02:00 +13°C° 0.2 mm 0 mps 711 mmHg 59%
    03:00 +13°C° 0.2 mm 0 mps 711 mmHg 60%
    04:00 +13°C° 0.2 mm 0 mps 711 mmHg 62%
    05:00 +13°C° 0.2 mm 0 mps 712 mmHg 63%
    06:00 +14°C° 0.1 mm 1 mps 712 mmHg 63%
    07:00 +14°C° 0.1 mm 1 mps 712 mmHg 63%
    08:00 +14°C° 0.1 mm 1 mps 713 mmHg 62%
    09:00 +15°C° 0 mm 1 mps 713 mmHg 59%
    10:00 +16°C° 0 mm 1 mps 713 mmHg 55%
    11:00 +18°C° 0 mm 1 mps 713 mmHg 51%
    12:00 +17°C° 0 mm 2 mps 713 mmHg 50%
    13:00 +18°C° 0 mm 2 mps 713 mmHg 48%
    14:00 +18°C° 0 mm 2 mps 712 mmHg 47%
    15:00 +18°C° 0.1 mm 2 mps 712 mmHg 49%
    16:00 +19°C° 0.1 mm 1 mps 712 mmHg 50%
    17:00 +18°C° 0.1 mm 1 mps 713 mmHg 52%
    18:00 +18°C° 0.3 mm 1 mps 713 mmHg 54%
    19:00 +18°C° 0.3 mm 1 mps 713 mmHg 56%
    20:00 +16°C° 0.3 mm 1 mps 713 mmHg 57%
    21:00 +16°C° 0.4 mm 1 mps 713 mmHg 60%
    22:00 +16°C° 0.4 mm 1 mps 714 mmHg 62%
    23:00 +15°C° 0.4 mm 1 mps 714 mmHg 64%
    Show more